sat.trackr.live / text

‹ back to catalog

STARLINK-5321

NORAD 55302 · 2023-010AK

PAYLOAD ACTIVE UNKNOWN

§ Identity

Operator
Country
US
Launch date
2023-01-19
Launch site
AFWTR
Launch vehicle
Mass (kg)
RCS (m²)

Purposes: comms

External: N2YO · Heavens-Above · Gunter

§ Orbital elements

Epoch: 2026-09-20T17:03:02.772000Z

Period
96.11 min
Inclination
69.9979°
Eccentricity
0.0003423
Mean motion
14.98331635 rev/d
Perigee alt
569.7 km
Apogee alt
574.4 km
Semi-major
6,950.2 km
B*
3.7757e-5
RAAN
252.6417°
Arg perigee
267.1776°
Mean anomaly
92.8992°
Rev number
20,248

§ Raw data

STARLINK-53211 55302U 23010AK  26263.71044875  .00000357  00000+0  37757-4 0  99932 55302  69.9979 252.6417 0003423 267.1776  92.8992 14.98331635202489

JSON: /api/v1/satellites/55302 · /tle

For live sub-satellite position, see the globe view (requires WebGL).

§ Visibility from observer

Set your observer location to see the next 7 days of passes ≥ 10°. The values pass through the URL so the page stays shareable.

No JS? Fill the form by hand. The geolocation button needs JavaScript.